This is the latest recevied weather packets stored in our database for station/object N8HKU-5. If no packets are shown the sender has not sent any weather packets the latest 10 day(s).
| Time | Temp. | Humidity | Pressure | Rain* | Wind** | Luminosity | Snow |
|---|---|---|---|---|---|---|---|
| 1778058754 | 7.78° C | 64% | 1006.6 hPa | 0 mm | - | - | - |
| 1778058154 | 7.78° C | 64% | 1006.5 hPa | 0 mm | - | - | - |
| 1778057555 | 7.78° C | 64% | 1006.2 hPa | 0 mm | - | - | - |
| 1778056956 | 7.78° C | 63% | 1006.3 hPa | 0 mm | - | - | - |
| 1778056355 | 7.78° C | 64% | 1006.4 hPa | 0 mm | - | - | - |
| 1778055754 | 8.33° C | 64% | 1006.3 hPa | 0 mm | - | - | - |
| 1778055154 | 8.33° C | 64% | 1006.2 hPa | 0 mm | - | - | - |
| 1778054553 | 8.33° C | 64% | 1006.1 hPa | 0 mm | - | - | - |
| 1778053954 | 8.33° C | 65% | 1006.1 hPa | 0 mm | - | - | - |
| 1778053354 | 8.33° C | 66% | 1006.1 hPa | 0 mm | - | - | - |
| 1778052754 | 7.78° C | 68% | 1006.4 hPa | 0 mm | - | - | - |
| 1778052154 | 7.78° C | 69% | 1006.3 hPa | 0 mm | - | - | - |
| 1778051554 | 7.78° C | 69% | 1006.3 hPa | 0 mm | - | - | - |
| 1778050955 | 7.78° C | 71% | 1006.1 hPa | 0 mm | - | - | - |
| 1778050354 | 7.78° C | 70% | 1006.3 hPa | 0 mm | - | - | - |
| 1778049754 | 7.78° C | 70% | 1006.4 hPa | 0 mm | - | - | - |
| 1778049501 | 8.33° C | 71% | 1006.5 hPa | 0 mm | - | - | - |
| 1778049153 | 8.33° C | 71% | 1006.5 hPa | 0 mm | - | - | - |
| 1778048554 | 7.78° C | 75% | 1006.7 hPa | 0 mm | - | - | - |
| 1778047954 | 7.78° C | 77% | 1006.7 hPa | 0 mm | - | - | - |
| 1778047354 | 7.78° C | 81% | 1006.7 hPa | 0 mm | - | - | - |
| 1778046754 | 7.78° C | 83% | 1006.8 hPa | 0 mm | - | - | - |
| 1778046153 | 7.78° C | 82% | 1006.7 hPa | 0 mm | - | - | - |
| 1778045554 | 7.78° C | 80% | 1006.6 hPa | 0 mm | - | - | - |
| 1778044954 | 7.78° C | 77% | 1006.6 hPa | 0 mm | - | - | - |
* Rain latest hour (hover to see other rain measurements)
** Current wind speed in m/s (hover to see current wind gust speed)